Weather in Nerpo

Russia / Irkutsk Oblast     57°28′34″N   115°18′54″E
temp.,
°C
wind,
m/s
gust,
m/s
humid.,
%
clouds,
%
prec.,
mm/h
press.,
hPa
HPBL,
m
13 may, thu
thu1323:00−3nw229614 0.0 101325
02:00−5wnw119723 0.0 101413
05:00−4nw119567 0.0 101441
08:00+2n247796 0.0 1014803
11:00+4n3574100 0.2 10131016
14:00+4n4772100 0.6 10131072
17:00+3n2391100 0.9 1015344
20:00+2w2298100 1.3 101687
14 may, fri
fri1423:000wnw219494 0.0 101629
02:00−3wnw219434 0.0 101715
05:00−2w1191100 0.0 101819
08:00+5nnw136312 0.0 1016539
11:00+8n344573 0.0 10141977
14:00+10nne244087 0.0 10132210
17:00+10nne233950 0.0 10121986
20:00+5wsw016085 0.0 101410
15 may, sat
sat1523:00+2w11675 0.0 101510
02:00+1ssw11715 0.0 101510
05:00+1s11715 0.0 101510
08:00+7ese11535 0.0 1013409
11:00+11sse12400 0.0 10101585
14:00+13ssw23335 0.0 10071981
17:00+13ssw12323 0.0 10051956
20:00+8se11503 0.0 100510
16 may, sun
sun1623:00+5sw115881 0.0 100511
02:00+4nw3875100 0.0 1007719
05:00+3wnw1465100 0.0 1006523
08:00+4se2368100 0.3 1005720
11:00+8w584358 0.8 10032104
14:00+8w6125195 1.2 10032052
17:00+7wnw6104582 0.3 10032075
20:00+4wnw495885 0.9 1006765
17 may, mon
mon1723:00+1wsw116899 0.2 100811
02:00−1sw227280 0.4 100720
05:000nnw2379100 0.4 1007168
08:00+3nw2457100 1.0 10061204
11:00+3wnw475493 1.2 10051589
14:00+3nw575689 2.3 10061589
17:00+3nw5847100 0.7 10071943
20:000nw3559100 1.2 1008187